Погода в Аксёнове

Россия / Владимирская область     55°22′44″N   40°48′52″E
темп.,
°C
ветер,
м/с
пор.,
м/с
влажн.,
%
обл.,
%
осадки,
мм/ч
давл.,
гПа
погр.,
м
5 августа, чт
чт500:00+14зсз116997 0.0 101712
03:00+14с227112 0.0 101727
06:00+15ююв11705 0.0 101823
09:00+22юв12456 0.0 1017682
12:00+25ю123898 0.0 10172043
15:00+25ю1237100 0.0 10162155
18:00+21вюв1154100 0.0 101514
21:00+17ссз3680100 0.1 1015149
6 августа, пт
пт600:00+17св2573100 0.0 1015139
03:00+17в377096 0.0 1014161
06:00+16ююв2586100 0.4 1014136
09:00+16ююв41087100 0.7 1013295
12:00+23ю4761100 0.1 1013952
15:00+20ююв3770100 0.1 1013272
18:00+18св378585 0.3 1012216
21:00+18всв4117771 0.3 1011362
7 августа, сб
сб700:00+16в389167 0.6 1011182
03:00+16в359558 1.4 101189
06:00+16юв399021 1.3 1011202
09:00+18юв398976 3.6 1011221
12:00+30ююз473282 0.0 10111386
15:00+27ю3639100 0.0 1011682
18:00+23всв235896 0.0 101159
21:00+20вюв3961100 0.0 1011147
8 августа, вс
вс800:00+20ююв3136099 0.0 1011311
03:00+19ююв3126491 0.1 1012257
06:00+18ююз276884 0.0 1013155
09:00+24юз355371 0.0 1013505
12:00+26з3356100 0.0 1013952
15:00+24зсз1269100 0.0 1014198
18:00+25ююз346198 0.0 10151022
21:00+19сз2388100 0.8 101646
9 августа, пн
пн900:00+17зсз008397 0.1 101811
03:00+16ссз118599 0.2 101811
06:00+16с228898 0.0 101866
09:00+22сз126243 0.0 1019494
12:00+27з124388 0.0 10181356
15:00+28з2340100 0.0 10181944
18:00+26сз2350100 0.0 1017153
21:00+20ссв2262100 0.0 101816